STARLINK-2474 (48132 NORAD) Tracking and Keplerian Element Data

This shows tracking and keplerian element data for the satellite.

Feedback or suggestion? Click here.




ElementValue
Catalog48132
NameSTARLINK-2474
Epoch Orbit195
Epoch Day170.58334491
Epoch Year2021
RAAN351.4183
Inclination53.0523
Eccentricity0.0001336
Argument of Perigee100.3977
Mean Anonmoly354.6408
Mean Motion15.064486
Decay Rate-0.00085712
L11 48132U 21027AS 21170.58334491 -.00085712 00000-0 -57974-2 0 9997
L22 48132 53.0523 351.4183 0001336 100.3977 354.6408 15.06448600 1952

Live tracking and technical data element details for STARLINK-2474 (NORAD 48132). STARLINK-2474 can be tracked NOW for your location showing map with azimuth and elevation plus other details from your city location.

Track the satellite on the map from your city or location and see movement details for azimuth, elevation, latitude, longitude, range, height, and movement on the map or in text.







IsCatalogInMostPopularTable: catalog: 48132, numindb: 32
Update: records affected: 1



GetName: 48132 STARLINK-2474

Hit Count: updated at: Mon, 21 Jun 2021 04:26:44 GMT